StationID,Date,MaxTemp,MinTemp,Precipitation,Snowfall,SnowDepth
"CA001096435","1956-08-01",77.00,44.06,0.00,0.00,
"CA001096435","1956-08-02",76.10,46.94,0.00,0.00,
"CA001096435","1956-08-03",60.08,50.00,104.00,0.00,
"CA001096435","1956-08-04",73.04,51.98,0.00,0.00,
"CA001096435","1956-08-05",73.04,39.92,0.00,0.00,
"CA001096435","1956-08-06",74.12,46.04,0.00,0.00,
"CA001096435","1956-08-07",74.12,44.96,0.00,0.00,
"CA001096435","1956-08-08",68.00,46.04,0.00,0.00,
"CA001096435","1956-08-09",78.08,42.98,0.00,0.00,
"CA001096435","1956-08-10",80.06,51.98,0.00,0.00,
"CA001096435","1956-08-11",83.12,53.96,0.00,0.00,
"CA001096435","1956-08-12",87.98,48.02,0.00,0.00,
"CA001096435","1956-08-13",87.98,58.10,0.00,0.00,
"CA001096435","1956-08-14",87.08,50.00,0.00,0.00,
"CA001096435","1956-08-15",85.10,46.04,0.00,0.00,
"CA001096435","1956-08-16",57.02,51.98,249.00,0.00,
"CA001096435","1956-08-17",66.02,48.02,0.00,0.00,
"CA001096435","1956-08-18",77.00,44.06,0.00,0.00,
"CA001096435","1956-08-19",83.12,44.06,0.00,0.00,
"CA001096435","1956-08-20",82.04,51.98,0.00,0.00,
"CA001096435","1956-08-21",82.04,60.08,0.00,0.00,
"CA001096435","1956-08-22",83.12,53.96,0.00,0.00,
"CA001096435","1956-08-23",80.96,55.94,3.00,0.00,
"CA001096435","1956-08-24",74.12,58.10,368.00,0.00,
"CA001096435","1956-08-25",,55.04,0.00,0.00,
"CA001096435","1956-08-26",74.12,49.10,0.00,0.00,
"CA001096435","1956-08-27",66.02,51.08,8.00,0.00,
"CA001096435","1956-08-28",57.02,46.04,0.00,0.00,
"CA001096435","1956-08-29",62.96,44.96,0.00,0.00,
"CA001096435","1956-08-30",64.04,37.94,51.00,0.00,
"CA001096435","1956-08-31",69.98,46.04,36.00,0.00,
"CA001096435","1956-09-01",55.04,42.08,0.00,0.00,
"CA001096435","1956-09-02",57.02,39.92,0.00,0.00,
"CA001096435","1956-09-03",60.08,35.96,0.00,0.00,
"CA001096435","1956-09-04",62.06,33.98,0.00,0.00,
"CA001096435","1956-09-05",64.94,33.98,0.00,0.00,
"CA001096435","1956-09-06",66.02,42.08,0.00,0.00,
"CA001096435","1956-09-07",68.00,42.08,0.00,0.00,
"CA001096435","1956-09-08",73.04,51.08,0.00,0.00,
"CA001096435","1956-09-09",76.10,42.98,0.00,0.00,
"CA001096435","1956-09-10",67.10,49.10,46.00,0.00,
"CA001096435","1956-09-11",68.00,48.02,0.00,0.00,
"CA001096435","1956-09-12",71.96,46.94,0.00,0.00,
"CA001096435","1956-09-13",78.08,41.00,0.00,0.00,
"CA001096435","1956-09-14",82.04,42.08,0.00,0.00,
"CA001096435","1956-09-15",,50.00,0.00,0.00,
"CA001096435","1956-09-16",76.10,37.94,0.00,0.00,
"CA001096435","1956-09-17",75.02,42.98,0.00,0.00,
"CA001096435","1956-09-18",76.10,41.00,0.00,0.00,
"CA001096435","1956-09-19",71.96,42.98,0.00,0.00,
"CA001096435","1956-09-20",60.08,46.94,89.00,0.00,
"CA001096435","1956-09-21",59.00,37.04,0.00,0.00,
"CA001096435","1956-09-22",59.00,33.98,0.00,0.00,
"CA001096435","1956-09-23",55.04,,0.00,0.00,
"CA001096435","1956-09-24",46.94,26.06,51.00,0.00,
"CA001096435","1956-09-25",55.04,41.00,135.00,0.00,
"CA001096435","1956-09-26",50.00,37.94,0.00,0.00,
"CA001096435","1956-09-27",51.08,26.06,41.00,0.00,
"CA001096435","1956-09-28",48.02,37.04,28.00,0.00,
"CA001096435","1956-09-29",,39.02,0.00,0.00,
"CA001096435","1956-09-30",51.08,35.06,0.00,0.00,
"CA001096435","1956-10-03",55.94,,28.00,0.00,
"CA001096435","1956-10-04",51.98,32.00,,,
"CA001096435","1956-10-05",59.00,28.04,,,
"CA001096435","1956-10-08",53.96,26.06,,,
"CA001096435","1956-10-10",64.04,33.98,,,
"CA001096435","1956-10-11",58.10,30.92,,,
"CA001096435","1956-10-15",46.04,35.96,,,
"CA001096435","1956-10-16",51.08,28.04,,,
"CA001096435","1956-10-18",50.00,28.94,53.00,0.00,
"CA001096435","1956-10-19",,26.96,,,
"CA001096435","1956-10-22",48.02,42.08,,,
"CA001096435","1956-10-23",37.94,30.92,0.00,0.00,
"CA001096435","1956-10-25",44.06,30.92,,,
"CA001096435","1956-10-26",,19.94,,,
"CA001096435","1956-10-29",35.96,23.00,,,
"CA001096435","1956-10-30",30.02,19.04,,,
"CA001096435","1956-10-31",,17.06,,,
"CA001096435","1956-12-01",37.94,8.06,,,
"CA001096435","1956-12-02",21.02,6.98,,,
"CA001096435","1956-12-03",5.90,-0.94,,,
"CA001096435","1956-12-04",1.94,-3.10,,,
"CA001096435","1956-12-05",-0.04,-18.04,,,
"CA001096435","1956-12-06",-4.00,-18.04,,,
"CA001096435","1956-12-07",33.98,-0.94,,,
"CA001096435","1956-12-10",6.98,-7.06,,,
"CA001096435","1956-12-11",8.06,-5.98,,,
"CA001096435","1956-12-12",14.00,-4.00,,,
"CA001096435","1956-12-13",35.06,1.94,,,
"CA001096435","1956-12-14",32.00,10.94,,,
"CA001096435","1956-12-15",5.00,-11.02,,,
"CA001096435","1956-12-16",33.98,-7.96,,,
"CA001096435","1956-12-17",39.02,8.06,,,
"CA001096435","1956-12-18",41.00,32.00,,,
"CA001096435","1956-12-19",42.08,33.98,,,
"CA001096435","1956-12-20",30.02,17.96,,,
"CA001096435","1956-12-21",30.92,14.00,,,
"CA001096435","1956-12-22",,14.90,,,
"CA001096435","1956-12-23",32.00,14.00,,,
"CA001096435","1956-12-24",44.06,14.90,,,
"CA001096435","1956-12-25",46.04,41.00,,,
"CA001096435","1956-12-26",44.06,37.94,,,
"CA001096435","1956-12-27",44.06,33.08,,,
"CA001096435","1956-12-28",46.94,32.00,,,
"CA001096435","1956-12-30",32.00,21.02,,,
"CA001096435","1956-12-31",32.00,17.96,,,
"CA001096435","1957-04-01",51.98,33.98,33.00,0.00,
"CA001096435","1957-04-02",53.96,37.04,0.00,0.00,
"CA001096435","1957-04-03",50.00,30.02,0.00,0.00,
"CA001096435","1957-04-04",44.96,30.02,38.00,0.00,
"CA001096435","1957-04-05",46.94,32.00,28.00,0.00,
"CA001096435","1957-04-06",51.08,33.98,0.00,0.00,
"CA001096435","1957-04-07",48.02,28.04,0.00,0.00,
"CA001096435","1957-04-08",51.08,26.96,0.00,0.00,
"CA001096435","1957-04-09",49.10,30.02,0.00,0.00,
"CA001096435","1957-04-10",39.02,23.00,0.00,0.00,
"CA001096435","1957-04-11",41.00,21.02,0.00,0.00,
"CA001096435","1957-04-12",48.02,21.92,0.00,0.00,
"CA001096435","1957-04-13",53.06,30.02,0.00,0.00,
"CA001096435","1957-04-14",53.96,30.02,15.00,0.00,
"CA001096435","1957-04-15",51.98,39.92,23.00,0.00,
"CA001096435","1957-04-16",53.96,32.00,23.00,0.00,
"CA001096435","1957-04-17",58.10,28.94,64.00,0.00,
"CA001096435","1957-04-18",53.06,30.92,64.00,0.00,
"CA001096435","1957-04-19",55.04,37.94,0.00,0.00,
"CA001096435","1957-04-20",59.00,30.02,0.00,0.00,
"CA001096435","1957-04-21",53.06,35.06,0.00,0.00,
"CA001096435","1957-04-22",55.04,30.02,0.00,0.00,
"CA001096435","1957-04-23",53.06,33.08,0.00,0.00,
"CA001096435","1957-04-24",57.02,28.94,0.00,0.00,
"CA001096435","1957-04-25",53.96,35.96,0.00,0.00,
"CA001096435","1957-04-26",48.02,35.06,0.00,0.00,
"CA001096435","1957-04-27",60.08,30.02,74.00,0.00,
"CA001096435","1957-04-28",66.02,35.06,0.00,0.00,
"CA001096435","1957-04-29",62.96,42.08,0.00,0.00,
"CA001096435","1957-04-30",76.10,33.08,0.00,0.00,
"CA001096435","1957-10-01",74.12,41.00,0.00,0.00,
"CA001096435","1957-10-02",37.94,30.92,0.00,0.00,
"CA001096435","1957-10-03",30.92,26.96,0.00,0.00,
"CA001096435","1957-10-04",,26.96,0.00,0.00,
"CA001096435","1957-10-05",35.06,,0.00,0.00,
"CA001096435","1957-10-06",37.94,21.02,0.00,0.00,
"CA001096435","1957-10-07",42.08,17.06,0.00,0.00,
"CA001096435","1957-10-08",41.00,17.06,0.00,0.00,
"CA001096435","1957-10-09",46.94,17.06,0.00,0.00,
"CA001096435","1957-10-10",33.98,19.94,0.00,0.00,
"CA001096435","1957-10-11",60.08,24.98,18.00,0.00,
"CA001096435","1957-10-12",57.02,35.06,23.00,0.00,
"CA001096435","1957-10-13",57.02,37.94,3.00,0.00,
"CA001096435","1957-10-14",53.96,35.96,0.00,0.00,
"CA001096435","1957-10-15",51.98,26.06,0.00,0.00,
"CA001096435","1957-10-16",53.96,28.04,0.00,0.00,
"CA001096435","1957-10-17",53.06,24.98,0.00,0.00,
"CA001096435","1957-10-18",53.06,24.98,0.00,0.00,
"CA001096435","1957-10-19",37.94,24.08,0.00,0.00,
"CA001096435","1957-10-20",42.98,19.94,0.00,0.00,
"CA001096435","1957-10-21",39.92,19.94,0.00,0.00,
"CA001096435","1957-10-22",37.94,24.08,0.00,0.00,
"CA001096435","1957-10-23",39.92,14.00,0.00,0.00,
"CA001096435","1957-10-24",42.98,14.00,0.00,0.00,
"CA001096435","1957-10-25",44.96,35.06,0.00,0.00,
"CA001096435","1957-10-26",55.94,33.08,25.00,0.00,
"CA001096435","1957-10-27",50.00,33.98,23.00,0.00,
"CA001096435","1957-10-28",46.94,35.06,0.00,0.00,
"CA001096435","1957-10-29",53.06,32.00,226.00,0.00,
"CA001096435","1957-10-30",53.06,42.08,20.00,0.00,
"CA001096435","1957-10-31",49.10,30.02,0.00,0.00,
